South Paris, Maine, United States (04281)
Lat: 44.22N, Lon: 70.51W
Wx Zone: MEZ012
Local Info
Past Weather Observations for Saturday, August 30, 2014

NOTE: This archive is for the closest National Weather Service station to South Paris. Information may differ from the station used for current weather conditions.

Click here for Long-term Archive

Time Weather Temperature Dewpoint Humidity Pressure Winds Precip Visibility
23:55
Clear
63°F / 17°C 55°F / 13°C 77% 30.06 in
(1018 mb)
S 9.2 mph
(S 15 kph)
- 10SM
23:35
Clear
61°F / 16°C 55°F / 13°C 83% 30.09 in
(1019 mb)
S 5.8 mph
(S 9 kph)
- 10SM
23:15
Clear
61°F / 16°C 55°F / 13°C 83% 30.09 in
(1019 mb)
SSE 5.8 mph
(SSE 9 kph)
- 10SM
22:55
Clear
59°F / 15°C 55°F / 13°C 88% 30.09 in
(1019 mb)
S 3.5 mph
(S 6 kph)
- 10SM
22:35
Clear
59°F / 15°C 55°F / 13°C 88% 30.09 in
(1019 mb)
SSE 4.6 mph
(SSE 7 kph)
- 10SM
22:15
Clear
59°F / 15°C 55°F / 13°C 88% 30.09 in
(1019 mb)
SSE 4.6 mph
(SSE 7 kph)
- 10SM
21:55
Clear
61°F / 16°C 55°F / 13°C 83% 30.09 in
(1019 mb)
SSE 6.9 mph
(SSE 11 kph)
- 10SM
21:35
Clear
61°F / 16°C 55°F / 13°C 83% 30.09 in
(1019 mb)
S 6.9 mph
(S 11 kph)
- 10SM
21:15
Clear
61°F / 16°C 55°F / 13°C 83% 30.12 in
(1020 mb)
SSE 5.8 mph
(SSE 9 kph)
- 10SM
20:55
Clear
59°F / 15°C 54°F / 12°C 82% 30.09 in
(1019 mb)
SE 6.9 mph
(SE 11 kph)
- 10SM
20:35
Clear
61°F / 16°C 54°F / 12°C 77% 30.09 in
(1019 mb)
S 5.8 mph
(S 9 kph)
- 10SM
20:15
Clear
61°F / 16°C 54°F / 12°C 77% 30.12 in
(1020 mb)
S 5.8 mph
(S 9 kph)
- 10SM
19:55
Clear
61°F / 16°C 54°F / 12°C 77% 30.12 in
(1020 mb)
SSE 8.1 mph
(SSE 13 kph)
- 10SM
19:35
Clear
61°F / 16°C 54°F / 12°C 77% 30.12 in
(1020 mb)
S 8.1 mph
(S 13 kph)
- 10SM
19:15
Clear
61°F / 16°C 54°F / 12°C 77% 30.12 in
(1020 mb)
S 8.1 mph
(S 13 kph)
- 10SM
18:55
Clear
63°F / 17°C 54°F / 12°C 73% 30.12 in
(1020 mb)
SSE 6.9 mph
(SSE 11 kph)
- 10SM
18:35
Clear
63°F / 17°C 54°F / 12°C 73% 30.12 in
(1020 mb)
S 9.2 mph
(S 15 kph)
- 10SM
18:15
Clear
64°F / 18°C 54°F / 12°C 68% 30.12 in
(1020 mb)
SSE 9.2 mph
(SSE 15 kph)
- 10SM
17:55
Clear
64°F / 18°C 54°F / 12°C 68% 30.12 in
(1020 mb)
S 11.5 mph
(S 19 kph)
- 10SM
17:35
Clear
64°F / 18°C 55°F / 13°C 73% 30.12 in
(1020 mb)
SSE 10.4 mph
(SSE 17 kph)
- 10SM
17:15
Clear
66°F / 19°C 55°F / 13°C 68% 30.12 in
(1020 mb)
SSE 11.5 mph
(SSE 19 kph)
- 10SM
16:55
Clear
66°F / 19°C 55°F / 13°C 68% 30.15 in
(1021 mb)
SSE 10.4 mph
(SSE 17 kph)
- 10SM
16:35
Clear
68°F / 20°C 55°F / 13°C 64% 30.15 in
(1021 mb)
S 10.4 mph
(S 17 kph)
- 10SM
16:15
Clear
68°F / 20°C 55°F / 13°C 64% 30.15 in
(1021 mb)
SSE 11.5 mph
(SSE 19 kph)
- 10SM
15:55
Partly Cloudy
70°F / 21°C 57°F / 14°C 64% 30.15 in
(1021 mb)
S 12.7 mph
(S 20 kph)
- 10SM
15:35
Partly Cloudy
70°F / 21°C 57°F / 14°C 64% 30.15 in
(1021 mb)
S 15 mph
(S 24 kph)
- 10SM
15:15
Mostly Cloudy
70°F / 21°C 57°F / 14°C 64% 30.15 in
(1021 mb)
SSE 10.4 mph
(SSE 17 kph)
- 10SM
14:55
Mostly Cloudy
70°F / 21°C 57°F / 14°C 64% 30.15 in
(1021 mb)
SSE 12.7 mph
(SSE 20 kph)
- 10SM
14:35
Overcast
72°F / 22°C 59°F / 15°C 65% 30.18 in
(1022 mb)
SSE 12.7 mph
(SSE 20 kph)
- 10SM
14:15
Mostly Cloudy
72°F / 22°C 61°F / 16°C 69% 30.18 in
(1022 mb)
SSE 11.5 mph
(SSE 19 kph)
- 10SM
13:55
Mostly Cloudy
72°F / 22°C 61°F / 16°C 69% 30.18 in
(1022 mb)
SSE 10.4 mph
(SSE 17 kph)
- 10SM
13:35
Mostly Cloudy
72°F / 22°C 55°F / 13°C 57% 30.18 in
(1022 mb)
S 12.7 mph
(S 20 kph)
- 10SM
13:15
Partly Cloudy
72°F / 22°C 57°F / 14°C 61% 30.18 in
(1022 mb)
SW 11.5 mph
(SW 19 kph)
- 10SM
12:55
Partly Cloudy
72°F / 22°C 57°F / 14°C 61% 30.21 in
(1023 mb)
SW 11.5 mph
(SW 19 kph)
- 10SM
12:35
Partly Cloudy
73°F / 23°C 57°F / 14°C 57% 30.21 in
(1023 mb)
S 15 mph
(S 24 kph)
- 10SM
12:15
Mostly Cloudy
73°F / 23°C 57°F / 14°C 57% 30.21 in
(1023 mb)
SSE 15 mph
(SSE 24 kph)
- 10SM
11:55
Mostly Cloudy
73°F / 23°C 57°F / 14°C 57% 30.21 in
(1023 mb)
SW 13.8 mph
(SW 22 kph)
- 9SM
11:35
Partly Cloudy
72°F / 22°C 57°F / 14°C 61% 30.24 in
(1024 mb)
SSE 10.4 mph
(SSE 17 kph)
- 10SM
11:15
Partly Cloudy
72°F / 22°C 57°F / 14°C 61% 30.24 in
(1024 mb)
SSE 13.8 mph
(SSE 22 kph)
- 10SM
10:55
Partly Cloudy
72°F / 22°C 57°F / 14°C 61% 30.24 in
(1024 mb)
SW 11.5 mph
(SW 19 kph)
- 10SM
10:35
Clear
72°F / 22°C 57°F / 14°C 61% 30.24 in
(1024 mb)
S 11.5 mph
(S 19 kph)
- 10SM
10:15
Clear
70°F / 21°C 57°F / 14°C 64% 30.24 in
(1024 mb)
S 11.5 mph
(S 19 kph)
- 10SM
09:55
Clear
68°F / 20°C 57°F / 14°C 69% 30.24 in
(1024 mb)
SW 10.4 mph
(SW 17 kph)
- 10SM
09:35
Clear
66°F / 19°C 55°F / 13°C 68% 30.27 in
(1025 mb)
S 8.1 mph
(S 13 kph)
- 10SM
09:15
Clear
64°F / 18°C 55°F / 13°C 73% 30.27 in
(1025 mb)
S 8.1 mph
(S 13 kph)
- 10SM
08:55
Clear
64°F / 18°C 55°F / 13°C 73% 30.27 in
(1025 mb)
S 6.9 mph
(S 11 kph)
- 10SM
08:35
Clear
63°F / 17°C 55°F / 13°C 77% 30.27 in
(1025 mb)
S 9.2 mph
(S 15 kph)
- 10SM
08:15
Clear
63°F / 17°C 54°F / 12°C 73% 30.27 in
(1025 mb)
S 10.4 mph
(S 17 kph)
- 10SM
07:55
Clear
61°F / 16°C 54°F / 12°C 77% 30.27 in
(1025 mb)
S 9.2 mph
(S 15 kph)
- 10SM
07:35
Clear
59°F / 15°C 54°F / 12°C 82% 30.27 in
(1025 mb)
S 6.9 mph
(S 11 kph)
- 10SM
07:15
Clear
57°F / 14°C 52°F / 11°C 82% 30.27 in
(1025 mb)
S 6.9 mph
(S 11 kph)
- 10SM
06:55
Clear
57°F / 14°C 52°F / 11°C 82% 30.27 in
(1025 mb)
S 8.1 mph
(S 13 kph)
- 10SM
06:35
Clear
55°F / 13°C 52°F / 11°C 88% 30.27 in
(1025 mb)
SSE 6.9 mph
(SSE 11 kph)
- 10SM
06:15
Clear
54°F / 12°C 48°F / 9°C 82% 30.27 in
(1025 mb)
SSE 3.5 mph
(SSE 6 kph)
- 10SM
05:55
Clear
54°F / 12°C 48°F / 9°C 82% 30.27 in
(1025 mb)
SSE 4.6 mph
(SSE 7 kph)
- 10SM
05:35
Clear
52°F / 11°C 46°F / 8°C 82% 30.27 in
(1025 mb)
SSE 4.6 mph
(SSE 7 kph)
- 10SM
05:15
Clear
52°F / 11°C 48°F / 9°C 88% 30.27 in
(1025 mb)
SSE 3.5 mph
(SSE 6 kph)
- 10SM
04:55
Clear
52°F / 11°C 48°F / 9°C 88% 30.27 in
(1025 mb)
SE 5.8 mph
(SE 9 kph)
- 10SM
04:35
Clear
52°F / 11°C 46°F / 8°C 82% 30.27 in
(1025 mb)
Calm - 10SM
04:15
Clear
52°F / 11°C 48°F / 9°C 88% 30.27 in
(1025 mb)
Calm - 10SM
03:55
Clear
52°F / 11°C 48°F / 9°C 88% 30.27 in
(1025 mb)
SSE 5.8 mph
(SSE 9 kph)
- 10SM
03:35
Clear
48°F / 9°C 45°F / 7°C 87% 30.27 in
(1025 mb)
SSE 3.5 mph
(SSE 6 kph)
- 10SM
03:15
Clear
48°F / 9°C 45°F / 7°C 87% 30.27 in
(1025 mb)
SSE 3.5 mph
(SSE 6 kph)
- 10SM
02:55
Clear
48°F / 9°C 45°F / 7°C 87% 30.27 in
(1025 mb)
Calm - 10SM
02:35
Partly Cloudy
50°F / 10°C 45°F / 7°C 82% 30.27 in
(1025 mb)
Calm - 10SM
02:15
Mostly Cloudy
52°F / 11°C 48°F / 9°C 88% 30.27 in
(1025 mb)
SSE 3.5 mph
(SSE 6 kph)
- 10SM
01:55
Overcast
52°F / 11°C 46°F / 8°C 82% 30.27 in
(1025 mb)
Calm - 10SM
01:35
Mostly Cloudy
50°F / 10°C 45°F / 7°C 82% 30.27 in
(1025 mb)
S 3.5 mph
(S 6 kph)
- 10SM
01:15
Clear
48°F / 9°C 45°F / 7°C 87% 30.27 in
(1025 mb)
S 4.6 mph
(S 7 kph)
- 10SM
00:55
Clear
48°F / 9°C 45°F / 7°C 87% 30.27 in
(1025 mb)
SSE 3.5 mph
(SSE 6 kph)
- 10SM
00:35
Clear
50°F / 10°C 46°F / 8°C 88% 30.27 in
(1025 mb)
Calm - 10SM
00:15
Clear
52°F / 11°C 46°F / 8°C 82% 30.27 in
(1025 mb)
SSE 3.5 mph
(SSE 6 kph)
- 10SM
Time Weather Temperature Dewpoint Humidity Pressure Winds Precip Visibility


Weather for websites

WeatherForYou.com, LLC is not responsible for any damages or problems caused by this service. Current weather conditions are obtained from the closest station including government and personal stations which may have varying degrees of accuracy. Weather forecasts are derived from the NOAA NDFD. Like all things, this site belongs to Jesus Christ... He just trusts me to maintain it. If you have any questions or comments email webmaster@weatherforyou.com

Copyright © 2014, WeatherForYou.com LLC. All rights reserved.